Zurück zum Katalog

CZ-2D DEB

AktivSSO
NORAD 43403·DEBRIS·🇨🇳 China

Gestartet Sep 29, 2012 von Jiuquan Satellite Launch Center

Loading…

Nächste Überflüge (nächste 24 Stunden)

TLE

AktuellSource: Space-Track

Epoche: Sep 14, 2026, 11:29 UTC

1 43403U 12052C   26257.47902999  .00001009  00000-0  25528-3 0  9990
2 43403  98.0200 343.3080 0188668  25.6272 335.4123 14.42839246669170

Verfolge CZ-2D DEB in Echtzeit mit AllMySat

Download on the App Store